Temperature
21 21 22 22 22 21 20 20 20 20 20 20 19 19 19 19 19 19 20 20 20 20 20 20 20 19 19 19 18 18 18 18 18 17 17 17 16 16 16 16 16 16 16 15
21 22 21 22 22 22 21 20 20 20 20 19 19 19 19 19 19 19 19 20 20 20 20 20 19 19 19 19 18 18 18 18 18 17 17 16 16 16 16 16 16 16 15 15
20 20 22 21 21 21 21 20 20 20 20 19 18 18 18 19 19 19 20 20 20 20 20 19 19 19 19 18 18 18 18 17 17 17 16 16 16 16 16 15 15 15 15 15
18 20 21 20 20 21 20 20 19 19 19 18 18 19 19 20 20 20 20 20 19 19 19 19 19 19 18 18 17 17 17 17 17 16 16 16 16 15 15 15 15 15 15 14
16 18 19 20 20 20 20 20 19 19 19 18 18 18 18 19 20 20 20 20 19 19 19 19 18 18 18 17 17 17 17 17 16 16 16 16 15 15 15 15 15 14 14 14
16 18 19 20 20 20 20 19 19 18 17 17 18 17 18 19 19 19 19 19 19 19 18 18 18 18 17 17 17 17 16 16 16 16 15 15 15 15 14 14 14 14 14 13
16 17 18 19 19 20 20 19 19 18 18 17 17 18 19 19 19 19 19 19 19 19 18 18 17 17 17 17 17 16 16 16 15 15 15 15 14 14 14 14 13 13 13 13
15 17 18 18 18 18 18 19 19 18 19 18 19 19 19 19 19 19 19 19 18 18 18 17 17 17 17 16 16 16 15 15 15 15 14 14 14 14 14 13 13 13 13 13
15 16 17 17 18 19 19 19 19 19 19 19 18 18 18 18 18 18 18 18 18 18 17 17 16 16 16 16 16 15 15 15 15 14 14 14 14 13 13 13 13 13 12 12
14 15 16 17 18 19 19 19 19 19 19 19 18 18 18 18 18 18 18 17 17 17 17 16 16 16 15 15 15 15 15 14 14 14 14 13 13 13 13 13 12 12 12 12
14 15 16 18 18 19 19 19 19 19 18 18 18 18 18 17 17 17 17 17 17 17 16 16 16 15 15 15 15 15 14 14 14 14 13 13 13 13 13 12 12 12 12 11
15 15 15 17 18 18 18 18 18 18 18 18 18 18 17 17 17 17 17 17 16 16 16 16 15 15 15 15 14 14 14 14 14 13 13 13 13 12 12 12 12 12 11 11
17 17 17 17 18 18 18 18 18 18 18 18 18 17 17 17 17 16 16 16 16 16 16 15 15 15 15 14 14 14 14 13 13 13 13 13 13 12 12 12 11 11 11 11
17 17 17 17 17 17 17 17 18 17 17 17 17 17 17 16 16 16 16 16 16 15 15 15 15 15 14 14 14 14 13 13 13 13 13 12 12 12 11 11 11 11 11 11
17 17 17 17 17 17 17 17 17 17 17 16 16 16 16 16 16 16 15 15 15 15 15 15 14 14 14 14 13 13 13 13 13 12 12 12 11 11 11 11 11 11 11 11
16 16 16 16 16 17 16 16 16 16 16 16 16 16 16 16 15 15 15 15 15 15 14 14 14 14 14 13 13 13 13 12 12 12 12 11 11 11 11 11 11 11 10 10
15 15 16 16 16 16 16 16 16 16 16 16 16 16 15 15 15 15 15 14 14 14 14 14 13 13 13 13 13 12 12 12 12 11 11 11 11 11 10 10 10 10 10 10
16 16 16 16 16 15 15 15 15 15 15 15 15 15 15 15 14 14 14 14 13 13 13 13 13 13 13 12 12 12 12 11 11 11 11 10 10 10 10 10 10 9 9 9
15 15 15 15 15 15 15 15 15 14 14 14 14 14 14 14 14 14 13 13 13 13 13 13 12 12 12 12 12 11 11 11 11 11 10 10 10 10 9 9 9 9 9 9
15 15 15 15 15 14 14 14 14 14 14 14 14 14 14 13 13 13 13 13 13 13 12 12 12 12 12 11 11 11 11 11 11 10 10 10 10 9 9 9 9 9 8 8
14 14 14 14 14 14 14 14 14 13 13 13 13 13 13 13 13 13 13 12 12 12 12 12 12 11 11 11 11 11 11 10 10 10 10 9 9 9 9 9 8 8 8 8
14 13 13 13 13 13 13 13 13 13 13 13 13 12 12 12 12 12 12 12 12 12 12 12 11 11 11 11 11 10 10 10 10 10 9 9 9 8 8 8 8 8 8 7
13 13 13 13 13 13 13 12 12 12 12 12 12 12 12 12 12 12 12 12 12 11 11 11 11 11 11 10 10 10 10 10 9 9 9 9 8 8 8 8 8 8 7 7
13 13 13 13 13 13 12 12 12 12 12 12 12 12 12 12 11 11 11 11 11 11 11 11 11 10 10 10 10 10 10 9 9 9 9 8 8 8 8 8 7 7 7 7
13 12 12 12 12 12 12 12 12 12 12 12 11 11 11 11 11 11 11 11 11 11 11 10 10 10 10 10 10 9 9 9 9 8 8 8 8 8 8 7 7 7 7 7
12 12 12 12 12 12 12 12 11 11 11 11 11 11 11 11 11 11 10 10 10 10 10 10 10 10 10 9 9 9 9 9 8 8 8 8 7 7 7 7 7 7 6 6
12 12 12 12 12 11 11 11 11 11 11 11 11 11 11 10 10 10 10 10 10 10 10 10 9 9 9 9 9 9 8 8 8 8 7 7 7 7 7 7 7 6 6 6
Wind_Speed
3 3 2 2 2 4 5 7 7 7 6 8 7 6 4 4 3 3 3 4 4 4 4 4 3 3 3 3 2 3 3 3 3 2 2 2 2 2 1 1 2 1 1 1
1 1 1 0 2 3 3 3 4 3 5 5 3 3 2 2 3 4 4 4 4 4 4 4 5 5 4 3 3 3 4 3 2 2 1 2 2 2 1 1 1 1 1 2
2 3 2 3 4 4 3 3 5 6 6 2 3 5 6 5 4 5 4 3 4 5 5 5 5 5 4 4 3 3 3 3 2 2 3 2 2 1 1 1 1 1 1 2
1 1 3 6 3 3 4 2 3 4 3 5 5 4 3 4 6 5 4 3 3 3 3 3 3 3 3 3 3 3 2 2 2 2 2 2 2 2 2 1 1 1 2 2
3 3 4 5 2 2 4 3 2 4 3 2 2 3 1 1 3 4 4 3 3 3 3 3 3 3 3 3 2 2 2 2 2 2 2 2 2 2 1 1 1 1 2 2
4 3 5 6 3 1 3 2 2 3 3 3 5 2 4 2 1 2 2 2 3 3 3 3 2 3 4 3 3 2 2 3 2 2 3 2 2 1 1 1 1 1 1 2
3 4 6 5 4 1 3 5 2 3 4 5 5 5 3 2 2 2 2 3 4 4 3 2 2 3 3 3 2 2 2 1 1 2 2 2 2 1 1 1 0 1 1 2
4 3 6 3 2 3 5 2 1 2 3 4 3 1 2 3 3 2 3 3 4 4 3 1 2 4 3 2 1 1 2 1 1 1 1 2 2 1 1 1 0 1 1 3
5 6 4 3 3 3 1 1 2 2 2 4 3 2 2 2 2 2 3 4 3 4 3 2 2 3 3 2 1 2 2 1 1 1 0 1 2 2 1 1 0 1 1 2
2 5 5 4 3 3 1 1 1 1 1 3 3 4 3 3 2 3 3 3 4 4 3 1 1 1 2 1 1 2 2 1 1 1 1 1 1 1 1 1 1 2 2 3
3 5 5 5 4 2 1 2 3 3 2 3 5 4 4 3 2 2 3 3 3 4 3 2 1 1 1 1 2 2 1 1 1 1 1 0 0 1 2 2 3 3 3 3
6 6 4 6 5 2 1 0 1 2 2 2 4 5 4 3 2 3 3 2 3 2 2 2 1 1 1 1 2 2 1 1 1 1 1 1 0 2 3 2 2 3 4 4
6 5 5 6 5 3 2 2 2 2 3 3 3 4 4 3 2 3 3 3 3 3 3 2 1 1 1 1 2 2 1 2 2 1 1 1 1 0 2 3 3 3 2 2
5 3 2 3 3 3 2 1 0 1 1 3 3 3 3 2 2 2 3 3 3 3 2 2 2 1 1 1 2 2 2 2 2 2 2 1 1 1 1 1 2 3 4 4
4 4 5 3 1 1 1 1 2 2 1 1 1 2 3 3 2 2 2 2 3 3 2 2 2 1 1 1 2 2 2 1 1 1 1 1 1 1 1 1 1 2 3 4
3 1 1 1 2 1 0 1 2 3 3 2 2 2 3 3 2 1 1 2 3 3 3 3 2 2 1 2 2 1 1 2 2 1 1 1 1 1 1 1 1 2 2 3
2 2 2 2 3 3 3 3 3 3 3 3 3 2 3 3 2 1 0 0 2 2 2 3 3 2 1 2 2 1 1 1 1 1 2 2 1 1 1 1 1 2 2 2
6 6 5 5 4 3 3 2 2 2 2 2 2 3 3 3 3 2 1 0 1 1 1 2 2 1 1 1 1 1 1 1 1 1 1 1 1 1 1 1 1 2 2 2
3 4 3 3 3 3 3 2 2 1 1 2 3 3 3 3 3 3 2 2 1 2 3 2 1 1 2 2 2 1 1 1 1 1 1 1 1 1 1 1 1 1 1 2
1 1 1 1 1 1 2 1 1 1 2 3 3 3 3 3 3 3 3 2 3 4 3 2 1 2 2 2 1 1 1 1 1 1 1 1 1 1 1 1 1 1 2 2
1 0 1 1 0 1 1 1 2 1 1 2 3 4 4 3 3 3 3 2 3 3 2 3 2 2 2 2 1 1 2 2 2 2 2 1 1 1 1 1 1 1 2 2
0 0 0 0 1 1 1 1 1 2 2 2 3 3 3 2 2 2 2 4 3 3 2 2 2 3 2 2 1 2 2 2 2 2 2 2 2 1 2 2 2 2 2 2
1 1 1 1 1 1 1 0 1 1 2 2 3 3 3 3 3 3 3 3 2 3 2 2 3 3 1 1 1 2 2 2 2 2 2 2 2 2 2 2 2 2 2 2
1 1 1 0 1 1 1 2 1 0 1 1 2 3 3 2 1 2 2 2 2 2 1 2 2 1 1 1 2 2 2 3 3 2 2 2 2 2 2 2 2 1 2 2
1 0 0 1 1 1 2 1 0 1 1 0 1 1 1 2 3 2 1 1 1 1 1 1 1 1 1 1 2 2 2 3 3 3 2 2 2 2 2 2 2 2 2 2
1 0 1 1 1 1 1 0 0 0 1 1 1 0 0 0 1 1 0 1 1 1 1 0 1 1 1 1 2 2 2 2 2 2 2 2 2 2 2 2 2 2 2 3
1 1 1 1 1 0 1 1 1 1 1 2 1 1 0 0 0 0 1 0 0 0 0 1 1 1 1 1 1 1 1 1 2 2 2 2 2 2 2 3 2 2 2 2
Wind_Direction
219 234 190 213 224 174 172 181 184 220 221 242 224 203 193 186 175 152 151 160 167 175 178 177 177 173 167 179 176 164 157 171 199 209 203 213 220 223 224 222 237 234 248 271
353 60 78 322 286 209 199 178 190 203 251 252 200 146 162 179 176 188 189 188 186 186 184 185 190 193 177 181 183 170 170 188 197 189 192 208 214 209 199 218 237 225 252 266
266 307 45 280 251 211 195 198 180 204 234 182 166 181 191 192 198 208 205 206 200 196 197 200 199 192 190 191 176 168 179 189 183 190 199 208 207 183 197 217 227 242 267 275
183 70 218 243 258 199 177 212 204 211 215 189 202 200 197 188 183 190 195 203 200 191 197 205 191 181 173 162 158 166 180 197 195 191 201 202 191 209 220 211 219 243 264 281
136 182 261 290 270 181 173 246 226 201 199 165 92 72 4 221 179 188 191 190 188 179 169 160 165 172 152 144 145 158 182 207 212 196 198 194 208 229 225 219 259 270 280 281
132 164 224 248 290 268 125 278 270 180 180 157 119 143 246 223 198 185 178 153 145 139 132 144 160 154 149 154 157 191 214 209 204 189 183 193 211 231 243 208 247 292 321 309
160 203 255 269 310 81 157 239 262 197 188 174 183 201 214 171 184 168 152 135 125 116 117 139 154 144 148 153 183 203 214 199 179 183 185 189 184 191 170 159 186 318 313 314
153 186 253 304 73 164 223 278 222 210 198 185 191 127 138 149 147 127 118 112 114 108 104 112 138 129 133 166 210 151 141 142 153 143 178 155 141 128 127 140 157 288 314 321
193 214 256 291 246 271 205 223 244 210 205 160 146 136 119 122 115 108 118 114 111 115 109 91 104 131 150 188 163 139 137 159 163 119 136 142 143 148 122 111 229 283 295 300
264 273 286 295 292 313 303 253 274 213 144 134 146 143 126 126 121 116 118 119 114 112 112 107 80 110 155 163 130 127 142 157 144 133 76 43 91 157 187 213 241 269 281 286
267 282 310 312 299 288 355 37 58 63 77 124 136 143 147 149 155 151 142 139 137 140 147 169 160 142 127 112 115 126 143 155 166 166 162 93 358 263 235 242 226 234 253 256
238 250 236 268 286 277 205 214 140 105 70 105 139 151 155 158 162 160 154 139 142 152 167 183 165 167 147 130 133 147 164 203 208 195 183 153 33 351 346 283 271 255 247 255
234 247 239 262 281 283 252 233 202 168 161 154 155 152 151 157 166 160 157 161 179 188 188 179 175 212 226 149 143 163 195 221 222 206 195 193 185 207 332 352 4 4 339 316
239 225 249 262 274 295 288 272 138 99 127 149 154 143 141 144 155 171 193 195 184 176 168 173 185 231 244 170 159 183 204 220 217 211 210 205 201 221 244 293 329 336 347 349
266 234 221 244 275 314 329 90 101 101 100 94 141 149 153 156 178 208 217 170 153 152 165 167 173 248 255 163 172 197 208 226 220 211 209 206 210 211 240 268 288 313 328 341
291 291 167 184 222 248 227 176 173 200 194 201 201 188 167 156 159 168 175 152 154 175 189 181 199 227 201 161 162 188 218 233 224 199 199 200 208 223 247 263 284 302 311 317
212 233 208 226 242 254 249 235 218 221 217 206 201 172 136 119 109 111 266 184 180 192 204 195 214 232 189 162 167 197 223 238 235 217 212 212 219 237 246 248 263 287 295 305
219 221 216 212 215 234 263 270 239 212 210 199 157 135 141 151 170 192 214 101 72 5 274 228 211 203 180 171 170 197 216 234 251 246 225 212 223 228 231 245 268 284 303 323
238 219 218 218 211 204 216 229 228 214 181 158 153 165 177 176 177 181 165 147 165 253 273 266 235 198 198 202 171 175 201 223 252 260 225 198 200 211 221 249 266 274 289 311
254 235 215 231 243 212 215 214 193 170 165 158 163 172 185 195 184 176 168 189 226 232 237 242 219 201 206 207 177 177 189 203 221 240 219 205 206 219 233 247 262 283 294 297
231 209 134 147 237 246 222 199 174 198 222 192 188 199 209 216 192 173 170 216 251 232 219 222 215 217 216 205 180 185 192 191 202 217 216 203 205 231 258 269 280 290 294 300
213 147 192 209 190 259 276 219 175 186 200 202 202 198 192 201 191 183 211 220 236 227 212 215 220 217 213 202 194 194 197 200 205 210 205 200 201 231 261 275 278 281 284 289
282 253 244 235 214 225 332 7 185 189 199 204 204 196 195 208 201 190 232 240 226 228 222 224 215 212 210 174 180 185 187 196 207 212 205 204 217 232 243 255 263 273 283 292
289 290 283 289 99 86 322 302 299 196 191 208 199 185 174 176 227 232 217 234 236 236 227 214 203 189 136 149 174 181 187 190 197 203 201 203 218 226 235 243 251 266 277 287
279 299 40 106 145 244 261 277 3 64 100 126 231 198 184 190 200 217 203 204 220 209 201 210 211 198 165 172 186 186 195 199 200 196 197 204 216 223 226 232 239 254 268 278
310 289 256 237 226 232 244 176 166 206 175 192 268 307 118 160 177 190 180 190 164 152 172 202 198 179 170 183 193 192 196 199 194 192 199 208 225 235 241 248 254 257 269 277
346 359 22 1 331 268 196 183 191 216 209 192 208 249 189 96 94 90 68 56 61 108 252 250 236 199 179 182 187 196 207 207 201 201 209 218 230 238 242 246 252 258 263 268
Height
1474 1471 1471 1472 1472 1473 1478 1481 1488 1484 1481 1473 1469 1468 1469 1470 1471 1472 1473 1474 1476 1477 1479 1481 1483 1484 1485 1487 1487 1488 1488 1488 1488 1490 1490 1491 1491 1492 1492 1492 1492 1491 1491 1491
1474 1471 1471 1473 1471 1470 1472 1474 1477 1476 1476 1466 1466 1467 1468 1469 1470 1471 1472 1473 1475 1477 1478 1479 1481 1482 1483 1484 1485 1486 1486 1486 1486 1487 1488 1488 1489 1489 1489 1489 1489 1489 1489 1488
1483 1475 1472 1480 1472 1470 1470 1469 1471 1475 1470 1466 1467 1466 1467 1468 1469 1470 1471 1472 1473 1475 1476 1478 1479 1481 1481 1482 1483 1484 1484 1484 1484 1485 1486 1486 1487 1487 1486 1486 1486 1486 1485 1485
1486 1482 1490 1477 1463 1463 1466 1466 1465 1465 1464 1464 1464 1464 1465 1466 1467 1468 1470 1471 1473 1474 1475 1477 1478 1479 1480 1481 1481 1482 1482 1482 1483 1483 1483 1484 1484 1484 1484 1483 1483 1483 1482 1482
1490 1490 1484 1471 1464 1464 1466 1467 1462 1462 1462 1463 1464 1465 1466 1466 1467 1468 1469 1470 1471 1472 1474 1475 1477 1478 1478 1479 1480 1480 1480 1480 1481 1481 1481 1481 1481 1481 1481 1481 1480 1480 1479 1478
1488 1489 1490 1473 1461 1459 1463 1470 1461 1460 1461 1463 1464 1469 1467 1465 1466 1467 1469 1470 1470 1471 1473 1474 1475 1476 1477 1477 1478 1478 1478 1478 1479 1479 1479 1479 1479 1479 1479 1479 1478 1477 1477 1476
1486 1486 1479 1464 1460 1459 1473 1470 1459 1459 1459 1461 1462 1463 1464 1464 1465 1466 1468 1469 1470 1471 1472 1473 1474 1475 1475 1476 1476 1476 1477 1477 1477 1476 1477 1477 1477 1477 1477 1476 1476 1475 1474 1473
1486 1486 1481 1461 1460 1464 1464 1458 1457 1458 1458 1459 1460 1461 1462 1463 1464 1465 1466 1468 1469 1470 1471 1473 1474 1474 1474 1474 1475 1474 1475 1475 1475 1475 1476 1476 1475 1475 1474 1474 1473 1473 1471 1471
1476 1475 1464 1461 1460 1459 1458 1457 1457 1457 1458 1459 1460 1461 1462 1463 1464 1465 1466 1467 1469 1470 1471 1472 1472 1473 1473 1473 1473 1473 1473 1474 1474 1474 1474 1474 1473 1473 1472 1471 1471 1471 1469 1469
1472 1465 1461 1459 1459 1458 1458 1457 1456 1457 1457 1458 1459 1460 1461 1462 1463 1464 1465 1467 1468 1469 1470 1471 1471 1472 1472 1472 1471 1471 1471 1471 1472 1473 1473 1472 1472 1471 1471 1470 1470 1469 1468 1467
1469 1463 1460 1457 1457 1457 1456 1456 1456 1456 1457 1458 1458 1460 1461 1462 1463 1464 1465 1466 1467 1468 1469 1470 1471 1471 1471 1471 1471 1470 1471 1471 1471 1471 1471 1471 1471 1470 1470 1469 1469 1468 1467 1466
1467 1461 1461 1458 1457 1456 1456 1456 1456 1456 1457 1457 1458 1460 1461 1462 1463 1464 1465 1466 1467 1467 1468 1469 1469 1470 1470 1470 1470 1470 1469 1470 1470 1470 1470 1469 1469 1468 1468 1468 1467 1466 1465 1464
1459 1458 1458 1457 1456 1456 1455 1455 1455 1456 1456 1457 1458 1459 1460 1461 1463 1464 1464 1465 1465 1466 1467 1467 1468 1468 1468 1469 1469 1468 1468 1468 1468 1468 1468 1467 1467 1466 1465 1465 1465 1463 1462 1461
1456 1456 1455 1455 1455 1455 1455 1455 1454 1455 1456 1457 1457 1458 1460 1461 1462 1463 1463 1463 1464 1465 1465 1466 1466 1467 1467 1467 1467 1467 1467 1466 1466 1466 1465 1465 1464 1464 1463 1462 1461 1460 1460 1458
1454 1454 1453 1453 1453 1454 1454 1454 1453 1454 1454 1456 1457 1457 1458 1459 1460 1461 1462 1463 1463 1463 1464 1464 1465 1465 1465 1465 1465 1465 1465 1465 1464 1464 1463 1463 1462 1462 1461 1461 1459 1458 1457 1455
1451 1451 1451 1451 1451 1452 1452 1452 1452 1453 1453 1454 1455 1455 1456 1457 1459 1460 1461 1461 1461 1461 1462 1462 1463 1463 1463 1463 1463 1463 1463 1462 1462 1461 1461 1461 1460 1460 1459 1458 1457 1456 1455 1453
1450 1449 1449 1449 1449 1450 1450 1451 1451 1451 1452 1452 1453 1453 1454 1455 1456 1458 1459 1459 1460 1460 1460 1461 1461 1461 1461 1461 1460 1460 1460 1460 1460 1459 1459 1458 1458 1457 1457 1456 1455 1454 1453 1452
1447 1448 1448 1448 1448 1448 1449 1449 1449 1450 1450 1450 1451 1452 1452 1453 1455 1456 1457 1457 1458 1458 1459 1459 1459 1459 1459 1459 1458 1459 1458 1458 1457 1456 1456 1456 1455 1455 1454 1453 1453 1452 1450 1449
1445 1446 1446 1446 1446 1446 1447 1447 1448 1448 1448 1449 1449 1450 1451 1452 1453 1454 1455 1456 1456 1456 1457 1457 1457 1457 1457 1457 1456 1456 1456 1455 1455 1454 1454 1453 1453 1452 1452 1451 1450 1449 1448 1447
1444 1444 1444 1444 1445 1445 1445 1445 1446 1446 1446 1447 1448 1449 1449 1450 1451 1452 1453 1453 1454 1454 1455 1455 1455 1455 1454 1454 1454 1453 1453 1453 1453 1452 1451 1451 1450 1450 1449 1449 1448 1447 1446 1445
1443 1443 1443 1443 1443 1443 1444 1444 1444 1444 1445 1446 1446 1447 1448 1448 1449 1449 1449 1449 1451 1452 1452 1452 1452 1452 1452 1451 1451 1451 1451 1450 1450 1450 1449 1448 1448 1448 1448 1447 1446 1446 1445 1444
1442 1442 1442 1442 1442 1442 1442 1442 1443 1443 1443 1444 1444 1445 1446 1446 1446 1446 1447 1447 1448 1448 1449 1449 1449 1449 1449 1448 1448 1448 1448 1447 1447 1447 1446 1446 1446 1446 1446 1445 1444 1444 1443 1442
1441 1441 1441 1441 1441 1441 1441 1442 1442 1442 1442 1442 1442 1443 1443 1444 1444 1444 1444 1445 1445 1446 1446 1446 1446 1446 1445 1445 1445 1445 1445 1444 1444 1444 1444 1444 1444 1444 1443 1443 1442 1442 1441 1440
1440 1441 1440 1440 1440 1440 1440 1440 1440 1440 1440 1440 1441 1441 1441 1442 1442 1442 1442 1442 1443 1443 1444 1444 1444 1443 1443 1442 1442 1442 1442 1442 1442 1442 1442 1442 1441 1441 1441 1440 1440 1439 1438 1437
1440 1439 1439 1439 1439 1439 1439 1439 1439 1439 1439 1440 1440 1440 1440 1440 1440 1440 1440 1440 1441 1441 1442 1442 1441 1441 1441 1440 1440 1440 1440 1440 1440 1440 1439 1439 1439 1439 1438 1438 1437 1437 1436 1435
1438 1438 1438 1438 1438 1438 1438 1438 1438 1438 1438 1439 1439 1439 1439 1439 1439 1439 1439 1439 1439 1440 1440 1440 1439 1439 1439 1439 1439 1438 1438 1438 1438 1437 1437 1437 1437 1436 1436 1435 1435 1434 1433 1432
1438 1437 1437 1437 1437 1437 1437 1437 1437 1437 1438 1438 1438 1438 1438 1438 1438 1438 1438 1438 1438 1438 1438 1438 1438 1438 1437 1437 1437 1436 1436 1436 1436 1435 1435 1435 1435 1434 1434 1433 1432 1431 1431 1429